Las Vegas, NM

11:20 AM MDT on May 27, 2017 (GMT -0600)
Las Vegas Municipal

Weather History for KLVS - October, 2013

Change the Weather History Date:

Saturday, October 5, 2013

  Actual Average Record
Temperature  
Mean Temperature 41 °F -  
Max Temperature 55 °F 69 °F 82 °F (1956)
Min Temperature 27 °F 40 °F 27 °F (2013)
Degree Days  
Heating Degree Days 24    
Moisture  
Dew Point 21 °F    
Average Humidity 47    
Maximum Humidity 85    
Minimum Humidity 22    
Precipitation  
Precipitation 0.00 in - - ()
Sea Level Pressure  
Sea Level Pressure 30.11 in    
Wind  
Wind Speed 8 mph (SSE)    
Max Wind Speed 15 mph    
Max Gust Speed -    
Visibility 10 miles    
Events Rain    
Averages and records for this station are not official NWS values.
T = Trace of Precipitation, MM = Missing Value Source: NWS Daily Summary

Daily Weather History Graph

Daily Weather History Graph

Search for Another Location

Airport or City:

Trip Planner

Search our weather history database for the weather conditions in past years. The results will help you decide how hot, cold, wet, or windy it might be!

Date:

Astronomy

Oct. 05, 2013 Rise Set
Actual Time 6:58 AM MDT 6:38 PM MDT
Civil Twilight 6:33 AM MDT 7:03 PM MDT
Nautical Twilight 6:03 AM MDT 7:33 PM MDT
Astronomical Twilight 5:34 AM MDT 8:02 PM MDT
Moon 7:38 AM MDT (10/5) 7:02 PM MDT (10/5)
Length of Visible Light 12h 30m
Length of Day
11h 39m
New Moon, 1% of the Moon is Illuminated
Oct 5
New Moon
Oct 11
First Quarter
Oct 18
Full
Oct 26
Last Quarter
Nov 3
New

Hourly Weather History & Observations

Time (MDT) Temp. Windchill Dew Point Humidity Pressure Visibility Wind Dir Wind Speed Gust Speed Precip Events Conditions
12:53 AM 39.9 °F 33.9 °F 24.1 °F 53% 29.97 in 10.0 mi ENE 9.2 mph - N/A   Overcast
1:53 AM 39.9 °F 31.8 °F 25.0 °F 55% 29.98 in 10.0 mi ESE 15.0 mph - 0.00 in Rain Light Rain
2:53 AM 39.9 °F 33.9 °F 25.0 °F 55% 29.99 in 10.0 mi South 9.2 mph - 0.00 in   Overcast
3:53 AM 37.9 °F 29.2 °F 26.1 °F 62% 30.01 in 10.0 mi SSE 15.0 mph - N/A   Overcast
4:53 AM 35.1 °F 25.5 °F 25.0 °F 67% 30.03 in 10.0 mi South 15.0 mph - N/A   Clear
5:53 AM 30.0 °F 22.4 °F 23.0 °F 75% 30.10 in 10.0 mi ESE 8.1 mph - N/A   Clear
6:53 AM 27.0 °F 19.5 °F 23.0 °F 85% 30.17 in 10.0 mi ENE 6.9 mph - N/A   Clear
7:53 AM 33.1 °F 28.7 °F 25.0 °F 72% 30.15 in 10.0 mi SE 4.6 mph - N/A   Clear
8:53 AM 37.0 °F 34.5 °F 25.0 °F 62% 30.16 in 10.0 mi Variable 3.5 mph - N/A   Clear
9:53 AM 41.0 °F 38.0 °F 25.0 °F 53% 30.14 in 10.0 mi SW 4.6 mph - N/A   Clear
10:53 AM 46.0 °F 44.8 °F 19.9 °F 35% 30.14 in 10.0 mi Variable 3.5 mph - N/A   Clear
11:53 AM 48.9 °F - 17.1 °F 28% 30.12 in 10.0 mi Variable 6.9 mph - N/A   Clear
12:53 PM 51.1 °F - 16.0 °F 25% 30.10 in 10.0 mi Variable 3.5 mph - N/A   Clear
1:53 PM 54.0 °F - 16.0 °F 22% 30.08 in 10.0 mi Variable 3.5 mph - N/A   Clear
2:53 PM 54.0 °F - 16.0 °F 22% 30.07 in 10.0 mi Calm Calm - N/A   Clear
3:53 PM 55.0 °F - 17.1 °F 23% 30.06 in 10.0 mi ESE 5.8 mph - N/A   Clear
4:53 PM 55.0 °F - 16.0 °F 22% 30.09 in 10.0 mi South 5.8 mph - N/A   Clear
5:53 PM 53.1 °F - 19.0 °F 26% 30.13 in 10.0 mi South 8.1 mph - 0.00 in   Clear
6:53 PM 46.0 °F 41.4 °F 21.9 °F 39% 30.19 in 10.0 mi South 9.2 mph - N/A   Clear
7:53 PM 42.1 °F 36.1 °F 21.9 °F 45% 30.20 in 10.0 mi South 10.4 mph - N/A   Clear
8:53 PM 39.9 °F 35.1 °F 21.9 °F 49% 30.22 in 10.0 mi SSW 6.9 mph - N/A   Clear
9:53 PM 42.1 °F 38.4 °F 23.0 °F 47% 30.21 in 10.0 mi West 5.8 mph - N/A   Clear
10:53 PM 39.0 °F 34.0 °F 23.0 °F 53% 30.19 in 10.0 mi WSW 6.9 mph - N/A   Clear
11:53 PM 41.0 °F 38.0 °F 21.0 °F 45% 30.16 in 10.0 mi NNW 4.6 mph - N/A   Clear